Location: Bergnershof
(48.9468°N, 10.9431°E)
Time: 22:11:12
(UTC+00:00)

Meteor 1-25 Rocket - Pass Details

Date: 03 March 2021
Orbit: 835 x 893 km, 81.2° (Epoch: 13 April)

Event Time Altitude Azimuth Distance (km) Brightness Sun altitude
Rises 17:30:28 0° 178° (S) 3,471 7.4 -5.3°
Reaches altitude 10° 17:32:56 10° 176° (S) 2,530 6.7 -5.7°
Maximum altitude 17:38:35 62° 97° (E) 978 4.3 -6.6°
Drops below altitude 10° 17:44:12 10° 18° (NNE) 2,509 6.5 -7.6°
Sets 17:46:38 0° 15° (NNE) 3,442 7.2 -8.0°
